Weather History for VOTR - October, 2012

Change the Weather History Date:

Thursday, October 4, 2012

  Actual Average Record
Temperature  
Mean Temperature 87 °F -  
Max Temperature 97 °F 86 °F 99 °F (2014)
Min Temperature 77 °F 76 °F 75 °F (1997)
Cooling Degree Days 22    
Growing Degree Days 37 (Base 50)    
Moisture  
Dew Point 70 °F    
Average Humidity 59    
Maximum Humidity 83    
Minimum Humidity 27    
Precipitation  
Precipitation 0.00 in - - ()
Sea Level Pressure  
Sea Level Pressure 29.79 in    
Wind  
Wind Speed 6 mph ()    
Max Wind Speed 12 mph    
Max Gust Speed -    
Visibility 4.4 miles    
Events      
Averages and records for this station are not official NWS values.
T = Trace of Precipitation, MM = Missing Value Source: Averaged Metar Reports

Daily Weather History Graph

Daily Weather History Graph

Search for Another Location

Airport or City:

Trip Planner

Search our weather history database for the weather conditions in past years. The results will help you decide how hot, cold, wet, or windy it might be!

Date:

Astronomy

Oct. 04, 2012 Rise Set
Actual Time 6:03 AM IST 6:03 PM IST
Civil Twilight 5:42 AM IST 6:24 PM IST
Nautical Twilight 5:18 AM IST 6:49 PM IST
Astronomical Twilight 4:53 AM IST 7:13 PM IST
Moon 9:04 PM IST (10/4) 9:11 AM IST (10/4)
Length of Visible Light 12h 41m
Length of Day
11h 59m
Waning Gibbous, 85% of the Moon is Illuminated
Oct 4
Waning Gibbous
Oct 8
Last Quarter
Oct 15
New
Oct 22
First Quarter
Oct 30
Full

Hourly Weather History & Observations

Time (IST) Temp. Heat Index Dew Point Humidity Pressure Visibility Wind Dir Wind Speed Gust Speed Precip Events Conditions
12:10 AM 80.6 °F 85.4 °F 73.4 °F 79% 29.83 in 3.7 mi West 3.5 mph - N/A   Partly Cloudy
12:40 AM 80.6 °F 85.4 °F 73.4 °F 79% 29.83 in 3.7 mi WSW 2.3 mph - N/A   Partly Cloudy
1:10 AM 80.6 °F 85.4 °F 73.4 °F 79% 29.83 in 3.7 mi WSW 2.3 mph - N/A   Partly Cloudy
1:40 AM 80.6 °F 85.4 °F 73.4 °F 79% 29.80 in 3.7 mi West 2.3 mph - N/A   Partly Cloudy
2:10 AM 80.6 °F 85.4 °F 73.4 °F 79% 29.80 in 3.7 mi West 2.3 mph - N/A   Partly Cloudy
2:30 AM 80 °F - 73 °F 74% 29.79 in 2 mi WNW 3.5 mph - -   Haze
2:40 AM 80.6 °F 85.4 °F 73.4 °F 79% 29.80 in 3.7 mi NW 3.5 mph - N/A   Partly Cloudy
3:10 AM 78.8 °F - 73.4 °F 83% 29.80 in 3.7 mi WNW 4.6 mph - N/A   Partly Cloudy
4:10 AM 78.8 °F - 73.4 °F 83% 29.80 in 3.7 mi West 8.1 mph - N/A   Partly Cloudy
5:10 AM 78.8 °F - 73.4 °F 83% 29.80 in 3.7 mi WNW 6.9 mph - N/A   Partly Cloudy
5:30 AM 78 °F - 68 °F 65% 29.78 in 2 mi West 8.1 mph - -   Haze
6:10 AM 77.0 °F - 69.8 °F 78% 29.80 in 3.7 mi WNW 8.1 mph - N/A   Partly Cloudy
7:10 AM 78.8 °F - 68.0 °F 69% 29.83 in 3.7 mi West 8.1 mph - N/A   Partly Cloudy
7:40 AM 80.6 °F 83.2 °F 68.0 °F 65% 29.83 in 3.7 mi West 6.9 mph - N/A   Partly Cloudy
8:10 AM 82.4 °F 85.4 °F 68.0 °F 62% 29.86 in 3.7 mi West 6.9 mph - N/A   Scattered Clouds
8:30 AM 82 °F - 69 °F 56% 29.86 in 2 mi West 11.5 mph - -   Haze
8:40 AM 82.4 °F 85.4 °F 68.0 °F 62% 29.86 in 3.7 mi West 11.5 mph - N/A   Scattered Clouds
9:10 AM 84.2 °F 87.3 °F 68.0 °F 58% 29.86 in 3.7 mi West 11.5 mph - N/A   Scattered Clouds
9:40 AM 84.2 °F 87.3 °F 68.0 °F 58% 29.86 in 3.7 mi WNW 11.5 mph - N/A   Scattered Clouds
10:10 AM 86.0 °F 89.4 °F 68.0 °F 55% 29.86 in 5.0 mi West 9.2 mph - N/A   Partly Cloudy
10:40 AM 87.8 °F 91.4 °F 68.0 °F 52% 29.86 in 5.0 mi West 9.2 mph - N/A   Partly Cloudy
11:10 AM 89.6 °F 93.4 °F 68.0 °F 49% 29.86 in 6.2 mi WSW 9.2 mph - N/A   Unknown
11:30 AM 92 °F - 67 °F 33% 29.83 in 6 mi South 6.9 mph - -   Scattered Clouds
11:40 AM 91.4 °F 95.4 °F 68.0 °F 46% 29.83 in 6.2 mi SW 9.2 mph - N/A   Partly Cloudy
12:10 PM 93.2 °F 97.7 °F 68.0 °F 44% 29.80 in 6.2 mi Variable 4.6 mph - N/A   Partly Cloudy
12:40 PM 93.2 °F 97.7 °F 68.0 °F 44% 29.80 in 6.2 mi SSW 3.5 mph - N/A   Partly Cloudy
1:10 PM 95.0 °F 99.5 °F 68.0 °F 41% 29.77 in 6.2 mi West 6.9 mph - N/A   Partly Cloudy
1:40 PM 93.2 °F 98.8 °F 69.8 °F 46% 29.77 in 6.2 mi SW 5.8 mph - N/A   Partly Cloudy
2:10 PM 95.0 °F 101.3 °F 69.8 °F 44% 29.74 in 6.2 mi SW 6.9 mph - N/A   Partly Cloudy
2:30 PM 97 °F - 66 °F 27% 29.72 in 6 mi SSW 6.9 mph - -   Scattered Clouds
2:40 PM 96.8 °F 101.8 °F 68.0 °F 39% 29.74 in 6.2 mi South 6.9 mph - N/A   Partly Cloudy
3:10 PM 96.8 °F 101.8 °F 68.0 °F 39% 29.71 in 6.2 mi SSW 5.8 mph - N/A   Partly Cloudy
3:40 PM 96.8 °F 101.8 °F 68.0 °F 39% 29.71 in 6.2 mi South 6.9 mph - N/A   Partly Cloudy
4:10 PM 96.8 °F 103.1 °F 69.8 °F 41% 29.71 in 6.2 mi South 3.5 mph - N/A   Partly Cloudy
4:40 PM 95.0 °F 101.3 °F 69.8 °F 44% 29.71 in 6.2 mi South 3.5 mph - N/A   Partly Cloudy
5:10 PM 95.0 °F 101.3 °F 69.8 °F 44% 29.71 in 6.2 mi SSE 6.9 mph - N/A   Partly Cloudy
5:30 PM 93 °F - 66 °F 32% 29.70 in 6 mi South 4.6 mph - -   Scattered Clouds
5:40 PM 93.2 °F 98.8 °F 69.8 °F 46% 29.71 in 6.2 mi South 5.8 mph - N/A   Partly Cloudy
6:10 PM 93.2 °F 97.7 °F 68.0 °F 44% 29.71 in 3.7 mi SSE 8.1 mph - N/A   Partly Cloudy
6:40 PM 91.4 °F 95.4 °F 68.0 °F 46% 29.74 in 3.7 mi SSE 10.4 mph - N/A   Partly Cloudy
7:10 PM 87.8 °F 92.6 °F 69.8 °F 55% 29.74 in 3.7 mi SSE 10.4 mph - N/A   Partly Cloudy
7:40 PM 86.0 °F 91.8 °F 71.6 °F 62% 29.77 in 3.7 mi SSE 9.2 mph - N/A   Partly Cloudy
8:10 PM 86.0 °F 91.8 °F 71.6 °F 62% 29.77 in 3.7 mi South 10.4 mph - N/A   Partly Cloudy
8:30 PM 85 °F - 71 °F 54% 29.79 in 2 mi South 6.9 mph - -   Haze
8:40 PM 84.2 °F 89.6 °F 71.6 °F 66% 29.80 in 3.7 mi SSW 11.5 mph - N/A   Partly Cloudy
9:10 PM 84.2 °F 89.6 °F 71.6 °F 66% 29.80 in 3.7 mi South 6.9 mph - N/A   Partly Cloudy
9:40 PM 82.4 °F 87.2 °F 71.6 °F 70% 29.80 in 3.7 mi SSW 5.8 mph - N/A   Partly Cloudy
10:10 PM 82.4 °F 88.2 °F 73.4 °F 74% 29.83 in 3.7 mi SW 4.6 mph - N/A   Partly Cloudy
10:40 PM 82.4 °F 87.2 °F 71.6 °F 70% 29.83 in 3.7 mi SSW 6.9 mph - N/A   Partly Cloudy
11:10 PM 82.4 °F 87.2 °F 71.6 °F 70% 29.83 in 3.7 mi South 6.9 mph - N/A   Partly Cloudy
11:30 PM 82 °F - 73 °F 67% 29.82 in 2 mi SSW 2.3 mph - -   Haze
11:40 PM 82.4 °F 88.2 °F 73.4 °F 74% 29.83 in 3.7 mi SSW 3.5 mph - N/A   Partly Cloudy